SCP
0 0 0 0 0 1 1 2 2 5 4 3 2 3 3 2 1 0 0 0 0 0 0 0 0 0 0 0 0 0 0 0 0 0 0 0 0 0 0 0 0 0 0
0 2 4 3 2 3 4 5 5 5 4 5 3 3 1 3 0 0 0 0 0 0 0 0 0 0 0 0 0 0 0 0 0 0 0 0 0 0 0 0 0 0 0
2 2 1 2 2 3 3 3 5 4 4 4 3 2 1 0 0 0 0 0 0 0 0 0 0 0 0 0 0 0 0 0 0 0 0 0 0 0 0 0 0 0 0
1 2 1 1 1 1 1 1 1 1 1 1 1 1 1 0 0 0 0 0 0 0 0 0 0 0 0 0 0 0 0 0 0 0 0 0 0 0 0 0 0 0 0
1 1 0 0 0 0 0 0 0 0 0 0 0 0 0 0 0 0 0 0 0 0 0 0 0 0 0 0 0 0 0 0 0 0 0 0 0 0 0 0 0 0 0
0 0 0 0 0 0 0 0 0 0 0 0 0 0 0 0 0 0 0 0 0 0 0 0 0 0 0 0 0 0 0 0 0 0 0 0 0 0 0 0 0 0 0
0 0 0 0 0 0 0 0 0 0 0 0 0 0 0 0 0 0 0 0 0 0 0 0 0 0 0 0 0 0 0 0 0 0 0 0 0 0 0 0 0 0 0
0 0 0 0 0 0 0 0 0 0 0 0 0 0 0 0 0 0 0 0 0 0 0 0 0 0 0 0 0 0 0 0 0 0 0 0 0 0 0 0 0 0 0
0 0 0 0 0 0 0 0 0 0 0 0 0 0 0 0 0 0 0 0 0 0 0 0 0 0 0 0 0 0 0 0 0 0 0 0 0 0 0 0 0 0 0
0 0 0 0 0 0 0 0 0 0 0 0 0 0 0 0 0 0 0 0 0 0 0 0 0 0 0 0 0 0 0 0 0 0 0 0 0 0 0 0 0 0 0
0 0 0 0 0 0 0 0 0 0 0 0 0 0 0 0 0 0 0 0 0 0 0 0 0 0 0 0 0 0 0 0 0 0 0 0 0 0 0 0 0 0 0
0 0 0 0 0 0 0 0 0 0 0 0 0 0 0 0 0 0 0 0 0 0 0 0 0 0 0 0 0 -0 0 0 0 0 0 0 0 0 0 0 0 0 0
0 0 0 0 0 0 0 0 0 0 0 0 0 0 0 0 0 0 0 0 0 0 0 0 0 0 0 0 0 0 0 0 0 0 0 0 0 0 0 0 0 0 0
0 0 0 0 0 0 0 0 0 0 0 0 0 0 0 0 0 0 0 0 0 0 0 0 0 0 0 0 0 0 0 0 0 0 0 0 0 0 0 0 0 0 0
0 0 0 0 0 0 0 0 0 0 0 0 0 0 0 0 0 0 0 0 0 0 0 0 0 0 0 0 0 0 0 0 0 0 0 0 0 0 0 0 0 0 0
0 0 0 0 0 0 0 0 0 0 0 0 0 0 0 0 0 0 0 0 0 0 0 0 0 0 0 0 0 0 0 0 0 0 0 0 0 0 0 0 0 0 0
0 0 0 0 0 0 0 0 0 0 0 0 0 0 0 0 0 0 0 0 0 0 0 0 0 0 0 0 0 0 0 0 0 0 0 0 0 0 0 0 0 0 0
0 0 0 0 0 0 0 0 0 0 0 0 0 0 0 0 0 0 0 0 0 0 0 0 0 0 0 0 0 0 0 0 0 0 0 0 0 0 0 0 0 0 0
0 0 0 0 0 0 0 0 0 0 0 0 0 0 0 0 0 0 0 0 0 0 0 0 0 0 0 0 0 0 0 0 0 0 0 0 0 0 0 0 0 0 0
0 0 0 0 0 0 0 0 0 0 0 0 0 0 0 0 0 0 0 0 0 0 0 0 0 0 0 0 0 0 0 0 0 0 0 0 0 0 0 0 0 0 0
0 0 0 0 0 0 0 0 0 0 0 0 0 0 0 0 0 0 0 0 0 0 0 0 0 0 0 0 0 0 0 0 0 0 0 0 0 0 0 0 0 0 0
0 0 0 0 0 0 0 0 0 0 0 0 0 0 0 0 0 0 0 0 0 0 0 0 0 0 0 0 0 0 0 0 0 0 0 0 0 0 0 0 0 0 0
0 0 0 0 0 0 0 0 0 0 0 0 0 0 0 0 0 0 0 0 0 0 0 0 0 0 0 0 0 0 0 0 0 0 0 0 0 0 0 0 0 0 0
0 0 0 0 0 0 0 0 0 0 0 0 0 0 0 0 0 0 0 0 0 0 0 0 0 0 0 0 0 0 0 0 0 0 0 0 0 0 0 0 0 0 0
0 0 0 0 0 0 0 0 0 0 0 0 0 0 0 0 0 0 0 0 0 0 0 0 0 0 0 0 0 0 0 0 0 0 0 0 0 0 0 0 0 0 0
0 0 0 0 0 0 0 0 0 0 0 0 0 0 0 0 0 0 0 0 0 0 0 0 0 0 0 0 0 0 0 0 0 0 0 0 0 0 0 0 0 0 0
Wind_Speed_500mb
32 31 36 33 30 27 31 31 32 38 35 34 40 42 38 26 25 30 33 34 40 46 52 53 51 36 37 40 32 41 37 41 40 43 42 41 30 37 26 35 49 43 51
36 21 18 17 20 24 22 17 21 37 33 32 23 21 16 27 19 19 32 39 41 54 49 47 40 38 40 29 38 39 38 42 35 41 37 29 47 24 59 44 42 43 46
7 19 12 11 8 8 8 17 25 24 24 21 28 32 40 33 21 27 36 42 45 44 44 37 29 38 34 28 36 32 34 39 35 30 27 21 16 68 34 49 36 48 46
7 11 18 12 11 9 9 18 24 22 19 21 13 15 14 24 30 33 36 39 41 37 25 26 26 28 31 29 29 30 31 32 34 41 34 37 45 34 39 46 68 47 48
19 19 16 15 14 14 13 16 16 21 23 29 28 18 25 14 29 30 31 38 33 22 17 22 25 30 25 26 34 35 36 34 36 43 46 50 52 50 42 65 79 75 54
23 24 24 24 23 21 20 19 16 13 16 17 20 13 15 16 13 25 20 19 18 21 22 26 26 30 28 26 31 36 31 35 35 36 42 42 48 53 54 58 74 75 75
25 26 26 25 23 21 18 15 13 9 7 5 7 8 11 13 12 16 15 22 18 20 24 30 28 29 28 27 28 28 32 40 37 35 36 37 46 48 51 55 64 66 76
25 26 24 24 21 19 17 16 16 14 6 2 6 11 12 12 12 18 20 19 21 24 30 27 28 32 30 30 31 30 28 39 37 37 40 43 43 44 50 48 53 61 57
27 26 25 22 21 19 18 16 14 10 4 7 12 14 16 18 17 17 20 19 23 26 29 30 30 28 30 31 35 34 39 41 43 38 38 42 37 42 54 50 45 46 40
26 25 25 24 20 19 18 16 13 8 5 4 5 8 13 14 16 17 21 25 28 30 30 29 30 29 32 32 37 41 41 41 39 42 46 41 42 47 47 50 49 40 46
28 27 23 22 20 18 14 13 10 8 5 8 8 14 10 13 15 18 23 28 31 28 28 29 28 28 33 33 40 44 45 47 43 42 43 39 45 49 52 51 49 42 42
27 26 24 22 21 18 15 13 8 4 2 10 8 11 12 15 15 20 24 29 29 28 28 28 28 28 30 32 37 40 40 42 43 41 46 41 45 51 50 51 54 37 37
30 28 25 22 20 18 15 11 8 4 9 11 14 13 14 15 17 19 23 26 29 29 29 27 28 29 32 33 30 36 40 37 36 41 45 47 49 45 46 47 52 42 38
31 29 26 23 21 17 14 12 7 5 13 16 11 12 14 16 16 19 22 24 28 30 32 29 28 28 28 25 30 40 41 36 37 37 39 39 43 45 44 45 51 48 41
30 30 26 23 21 18 14 11 8 15 14 7 10 13 16 18 18 19 21 24 27 28 29 29 27 28 23 27 48 58 44 36 39 39 38 37 45 39 42 49 43 43 47
28 27 25 23 21 18 14 12 10 7 9 7 9 14 17 19 19 20 21 24 27 27 29 29 29 31 29 38 51 44 37 32 32 37 38 41 35 41 38 42 37 32 43
26 26 24 22 20 18 16 9 5 8 5 8 11 15 17 19 21 21 24 25 28 27 29 30 31 33 32 41 48 45 32 34 36 40 40 37 32 43 49 50 40 40 35
23 24 23 22 20 18 12 6 6 4 6 9 12 15 18 19 23 23 25 28 28 28 29 31 32 36 35 44 48 47 38 35 40 39 41 41 36 38 45 61 46 41 34
23 23 23 23 21 16 10 4 3 5 6 10 12 15 17 21 23 23 26 27 27 28 30 32 35 38 36 40 46 57 43 41 44 42 38 48 46 46 57 55 47 45 35
27 28 27 25 21 13 3 10 2 3 7 10 13 15 18 21 23 24 26 27 28 29 33 34 36 42 48 36 47 58 46 51 52 50 44 41 43 48 58 54 41 41 43
30 30 27 23 18 10 8 6 1 5 10 10 12 16 20 23 22 26 27 28 31 32 33 35 36 39 30 30 50 58 52 51 54 47 48 47 49 61 55 41 40 34 48
31 27 25 20 12 11 8 4 1 7 10 9 12 17 20 22 23 26 27 29 30 34 35 35 35 33 33 43 50 52 60 62 57 57 59 59 50 43 46 34 37 38 33
29 25 21 21 16 9 8 10 3 6 8 11 15 19 21 21 26 26 27 30 31 32 35 35 36 37 39 45 45 56 58 56 58 49 50 43 50 44 36 35 29 24 22
25 22 21 17 13 7 4 3 3 8 10 14 17 19 20 24 24 26 26 28 30 29 37 34 36 41 43 41 50 54 54 50 45 46 38 43 38 34 30 35 30 21 22
23 21 19 14 10 9 5 3 4 7 11 16 16 18 22 23 27 26 29 29 30 35 32 29 36 39 35 43 60 52 52 48 48 38 32 38 35 31 32 30 26 18 23
23 22 16 14 10 6 3 4 5 5 10 14 16 21 21 23 26 28 29 34 32 33 34 43 51 39 38 55 45 45 43 43 48 46 44 40 37 36 32 29 26 25 24
Wind_Direction_500mb
201 208 197 217 224 217 223 218 220 220 208 216 221 227 235 229 228 260 272 282 288 300 311 316 316 320 322 319 318 317 321 329 340 320 311 314 325 313 312 309 301 309 305
169 133 123 192 219 226 218 209 210 227 216 218 217 226 231 216 242 253 275 284 302 310 319 322 325 313 324 331 315 331 337 329 320 319 318 330 333 315 317 329 314 318 304
26 126 142 158 177 196 203 223 201 227 218 225 236 239 229 269 257 273 276 302 310 315 319 326 334 326 340 331 339 337 334 325 323 328 329 320 296 317 328 332 325 323 322
167 139 140 136 136 141 153 222 214 224 252 242 250 219 235 237 225 260 292 304 311 321 325 335 337 340 343 339 336 329 338 318 324 344 345 317 314 309 318 319 330 323 322
112 127 137 129 122 118 121 118 130 149 170 190 188 212 236 269 275 286 305 320 331 322 326 339 338 340 342 328 330 340 321 325 328 332 327 325 330 326 303 308 328 334 330
120 122 118 116 112 109 112 122 164 196 209 216 217 243 269 267 268 303 341 319 319 317 312 327 333 333 332 331 341 329 327 334 330 329 326 322 328 323 316 304 321 323 330
124 120 118 119 119 119 118 114 118 127 145 183 229 256 289 318 348 331 326 334 316 315 310 326 320 317 323 331 321 316 328 329 330 323 329 327 327 339 328 316 318 318 327
128 126 127 126 126 125 120 114 111 109 125 174 302 318 337 323 340 325 335 337 325 322 312 320 312 318 320 321 326 324 325 319 320 320 319 326 337 325 332 328 322 311 315
138 135 135 135 133 130 125 123 120 116 96 354 356 349 337 344 338 340 340 321 327 317 307 317 311 311 309 314 318 322 320 314 318 315 315 324 325 320 321 327 328 326 313
147 145 143 143 141 140 132 126 124 113 75 18 10 1 354 346 341 340 341 337 330 325 325 318 310 312 314 312 315 313 311 309 312 315 316 319 322 326 321 322 324 329 331
159 156 155 151 149 143 145 133 121 101 54 354 344 342 334 337 346 341 344 340 337 333 331 324 321 320 315 316 315 316 316 307 307 314 313 316 318 323 321 317 318 320 328
163 163 162 161 158 159 152 147 134 113 94 324 336 316 337 1 330 334 345 346 344 343 334 330 326 320 313 314 318 312 311 308 306 306 314 313 313 324 320 324 326 321 326
168 168 169 171 171 169 162 154 137 190 292 321 316 326 349 334 337 338 343 345 343 346 340 333 324 319 316 319 313 320 318 315 305 305 311 313 321 320 322 319 325 330 327
176 176 177 179 176 179 175 164 170 276 309 319 331 339 324 320 327 329 339 338 343 348 343 336 330 326 329 317 315 327 322 319 311 313 314 314 311 318 321 320 321 332 331
183 183 183 184 182 180 178 174 206 302 315 327 321 306 325 325 317 312 326 337 341 344 341 340 337 333 329 319 320 320 322 321 304 314 312 314 320 311 324 319 318 322 327
193 189 188 187 186 187 186 186 274 324 304 316 336 315 318 323 320 315 319 329 330 334 338 339 336 326 326 324 328 343 335 324 323 327 319 316 320 319 313 320 325 321 320
195 191 189 186 186 186 189 216 275 317 334 341 319 317 317 322 318 319 316 316 320 325 331 332 332 334 330 335 346 351 344 341 324 316 318 318 314 314 314 326 328 324 323
182 182 181 178 179 176 177 228 293 338 13 315 314 315 313 315 315 318 318 311 311 318 322 322 325 326 327 340 347 343 346 337 324 324 319 315 312 302 313 326 326 318 318
163 168 171 171 166 164 180 277 55 44 314 312 307 309 316 318 318 316 316 314 312 316 314 315 317 323 320 317 337 345 345 327 329 324 318 313 311 314 324 324 323 313 310
146 153 156 157 157 165 161 82 190 272 306 300 302 311 315 318 316 316 319 321 319 320 313 314 316 314 313 307 322 334 335 330 327 327 324 317 314 312 314 319 319 316 318
141 148 147 148 156 165 139 138 67 299 302 310 310 317 316 314 319 314 316 321 321 317 317 317 319 328 329 323 326 332 331 324 322 321 319 311 307 307 309 313 310 305 323
141 141 145 148 147 136 132 147 299 336 325 315 322 317 316 320 314 317 320 322 324 321 319 319 324 328 329 329 327 326 325 322 319 317 317 313 316 315 317 314 311 321 325
146 150 142 141 151 155 136 75 332 345 333 327 319 321 318 317 321 323 324 325 328 329 330 329 327 326 327 327 320 321 326 322 319 324 323 324 317 320 326 330 325 329 323
147 151 154 149 157 161 145 187 320 324 335 325 321 320 324 319 324 324 325 321 325 333 339 333 330 327 328 331 332 334 339 340 342 342 344 342 334 339 335 331 332 322 329
157 155 158 156 152 163 179 206 284 329 330 329 331 331 326 328 326 326 318 318 316 328 337 336 341 335 332 328 331 339 347 353 355 3 347 344 357 347 347 341 340 333 335
159 156 153 159 167 169 209 245 290 314 329 346 326 325 327 330 329 327 329 325 325 328 342 343 341 348 329 334 340 346 346 354 355 1 359 353 347 346 344 346 341 342 337
Wind_Speed_850mb
32 31 36 33 30 27 31 31 32 38 35 34 40 42 38 26 25 30 33 34 40 46 52 53 51 36 37 40 32 41 37 41 40 43 42 41 30 37 26 35 49 43 51
36 21 18 17 20 24 22 17 21 37 33 32 23 21 16 27 19 19 32 39 41 54 49 47 40 38 40 29 38 39 38 42 35 41 37 29 47 24 59 44 42 43 46
7 19 12 11 8 8 8 17 25 24 24 21 28 32 40 33 21 27 36 42 45 44 44 37 29 38 34 28 36 32 34 39 35 30 27 21 16 68 34 49 36 48 46
7 11 18 12 11 9 9 18 24 22 19 21 13 15 14 24 30 33 36 39 41 37 25 26 26 28 31 29 29 30 31 32 34 41 34 37 45 34 39 46 68 47 48
19 19 16 15 14 14 13 16 16 21 23 29 28 18 25 14 29 30 31 38 33 22 17 22 25 30 25 26 34 35 36 34 36 43 46 50 52 50 42 65 79 75 54
23 24 24 24 23 21 20 19 16 13 16 17 20 13 15 16 13 25 20 19 18 21 22 26 26 30 28 26 31 36 31 35 35 36 42 42 48 53 54 58 74 75 75
25 26 26 25 23 21 18 15 13 9 7 5 7 8 11 13 12 16 15 22 18 20 24 30 28 29 28 27 28 28 32 40 37 35 36 37 46 48 51 55 64 66 76
25 26 24 24 21 19 17 16 16 14 6 2 6 11 12 12 12 18 20 19 21 24 30 27 28 32 30 30 31 30 28 39 37 37 40 43 43 44 50 48 53 61 57
27 26 25 22 21 19 18 16 14 10 4 7 12 14 16 18 17 17 20 19 23 26 29 30 30 28 30 31 35 34 39 41 43 38 38 42 37 42 54 50 45 46 40
26 25 25 24 20 19 18 16 13 8 5 4 5 8 13 14 16 17 21 25 28 30 30 29 30 29 32 32 37 41 41 41 39 42 46 41 42 47 47 50 49 40 46
28 27 23 22 20 18 14 13 10 8 5 8 8 14 10 13 15 18 23 28 31 28 28 29 28 28 33 33 40 44 45 47 43 42 43 39 45 49 52 51 49 42 42
27 26 24 22 21 18 15 13 8 4 2 10 8 11 12 15 15 20 24 29 29 28 28 28 28 28 30 32 37 40 40 42 43 41 46 41 45 51 50 51 54 37 37
30 28 25 22 20 18 15 11 8 4 9 11 14 13 14 15 17 19 23 26 29 29 29 27 28 29 32 33 30 36 40 37 36 41 45 47 49 45 46 47 52 42 38
31 29 26 23 21 17 14 12 7 5 13 16 11 12 14 16 16 19 22 24 28 30 32 29 28 28 28 25 30 40 41 36 37 37 39 39 43 45 44 45 51 48 41
30 30 26 23 21 18 14 11 8 15 14 7 10 13 16 18 18 19 21 24 27 28 29 29 27 28 23 27 48 58 44 36 39 39 38 37 45 39 42 49 43 43 47
28 27 25 23 21 18 14 12 10 7 9 7 9 14 17 19 19 20 21 24 27 27 29 29 29 31 29 38 51 44 37 32 32 37 38 41 35 41 38 42 37 32 43
26 26 24 22 20 18 16 9 5 8 5 8 11 15 17 19 21 21 24 25 28 27 29 30 31 33 32 41 48 45 32 34 36 40 40 37 32 43 49 50 40 40 35
23 24 23 22 20 18 12 6 6 4 6 9 12 15 18 19 23 23 25 28 28 28 29 31 32 36 35 44 48 47 38 35 40 39 41 41 36 38 45 61 46 41 34
23 23 23 23 21 16 10 4 3 5 6 10 12 15 17 21 23 23 26 27 27 28 30 32 35 38 36 40 46 57 43 41 44 42 38 48 46 46 57 55 47 45 35
27 28 27 25 21 13 3 10 2 3 7 10 13 15 18 21 23 24 26 27 28 29 33 34 36 42 48 36 47 58 46 51 52 50 44 41 43 48 58 54 41 41 43
30 30 27 23 18 10 8 6 1 5 10 10 12 16 20 23 22 26 27 28 31 32 33 35 36 39 30 30 50 58 52 51 54 47 48 47 49 61 55 41 40 34 48
31 27 25 20 12 11 8 4 1 7 10 9 12 17 20 22 23 26 27 29 30 34 35 35 35 33 33 43 50 52 60 62 57 57 59 59 50 43 46 34 37 38 33
29 25 21 21 16 9 8 10 3 6 8 11 15 19 21 21 26 26 27 30 31 32 35 35 36 37 39 45 45 56 58 56 58 49 50 43 50 44 36 35 29 24 22
25 22 21 17 13 7 4 3 3 8 10 14 17 19 20 24 24 26 26 28 30 29 37 34 36 41 43 41 50 54 54 50 45 46 38 43 38 34 30 35 30 21 22
23 21 19 14 10 9 5 3 4 7 11 16 16 18 22 23 27 26 29 29 30 35 32 29 36 39 35 43 60 52 52 48 48 38 32 38 35 31 32 30 26 18 23
23 22 16 14 10 6 3 4 5 5 10 14 16 21 21 23 26 28 29 34 32 33 34 43 51 39 38 55 45 45 43 43 48 46 44 40 37 36 32 29 26 25 24
Wind_Direction_850mb
201 208 197 217 224 217 223 218 220 220 208 216 221 227 235 229 228 260 272 282 288 300 311 316 316 320 322 319 318 317 321 329 340 320 311 314 325 313 312 309 301 309 305
169 133 123 192 219 226 218 209 210 227 216 218 217 226 231 216 242 253 275 284 302 310 319 322 325 313 324 331 315 331 337 329 320 319 318 330 333 315 317 329 314 318 304
26 126 142 158 177 196 203 223 201 227 218 225 236 239 229 269 257 273 276 302 310 315 319 326 334 326 340 331 339 337 334 325 323 328 329 320 296 317 328 332 325 323 322
167 139 140 136 136 141 153 222 214 224 252 242 250 219 235 237 225 260 292 304 311 321 325 335 337 340 343 339 336 329 338 318 324 344 345 317 314 309 318 319 330 323 322
112 127 137 129 122 118 121 118 130 149 170 190 188 212 236 269 275 286 305 320 331 322 326 339 338 340 342 328 330 340 321 325 328 332 327 325 330 326 303 308 328 334 330
120 122 118 116 112 109 112 122 164 196 209 216 217 243 269 267 268 303 341 319 319 317 312 327 333 333 332 331 341 329 327 334 330 329 326 322 328 323 316 304 321 323 330
124 120 118 119 119 119 118 114 118 127 145 183 229 256 289 318 348 331 326 334 316 315 310 326 320 317 323 331 321 316 328 329 330 323 329 327 327 339 328 316 318 318 327
128 126 127 126 126 125 120 114 111 109 125 174 302 318 337 323 340 325 335 337 325 322 312 320 312 318 320 321 326 324 325 319 320 320 319 326 337 325 332 328 322 311 315
138 135 135 135 133 130 125 123 120 116 96 354 356 349 337 344 338 340 340 321 327 317 307 317 311 311 309 314 318 322 320 314 318 315 315 324 325 320 321 327 328 326 313
147 145 143 143 141 140 132 126 124 113 75 18 10 1 354 346 341 340 341 337 330 325 325 318 310 312 314 312 315 313 311 309 312 315 316 319 322 326 321 322 324 329 331
159 156 155 151 149 143 145 133 121 101 54 354 344 342 334 337 346 341 344 340 337 333 331 324 321 320 315 316 315 316 316 307 307 314 313 316 318 323 321 317 318 320 328
163 163 162 161 158 159 152 147 134 113 94 324 336 316 337 1 330 334 345 346 344 343 334 330 326 320 313 314 318 312 311 308 306 306 314 313 313 324 320 324 326 321 326
168 168 169 171 171 169 162 154 137 190 292 321 316 326 349 334 337 338 343 345 343 346 340 333 324 319 316 319 313 320 318 315 305 305 311 313 321 320 322 319 325 330 327
176 176 177 179 176 179 175 164 170 276 309 319 331 339 324 320 327 329 339 338 343 348 343 336 330 326 329 317 315 327 322 319 311 313 314 314 311 318 321 320 321 332 331
183 183 183 184 182 180 178 174 206 302 315 327 321 306 325 325 317 312 326 337 341 344 341 340 337 333 329 319 320 320 322 321 304 314 312 314 320 311 324 319 318 322 327
193 189 188 187 186 187 186 186 274 324 304 316 336 315 318 323 320 315 319 329 330 334 338 339 336 326 326 324 328 343 335 324 323 327 319 316 320 319 313 320 325 321 320
195 191 189 186 186 186 189 216 275 317 334 341 319 317 317 322 318 319 316 316 320 325 331 332 332 334 330 335 346 351 344 341 324 316 318 318 314 314 314 326 328 324 323
182 182 181 178 179 176 177 228 293 338 13 315 314 315 313 315 315 318 318 311 311 318 322 322 325 326 327 340 347 343 346 337 324 324 319 315 312 302 313 326 326 318 318
163 168 171 171 166 164 180 277 55 44 314 312 307 309 316 318 318 316 316 314 312 316 314 315 317 323 320 317 337 345 345 327 329 324 318 313 311 314 324 324 323 313 310
146 153 156 157 157 165 161 82 190 272 306 300 302 311 315 318 316 316 319 321 319 320 313 314 316 314 313 307 322 334 335 330 327 327 324 317 314 312 314 319 319 316 318
141 148 147 148 156 165 139 138 67 299 302 310 310 317 316 314 319 314 316 321 321 317 317 317 319 328 329 323 326 332 331 324 322 321 319 311 307 307 309 313 310 305 323
141 141 145 148 147 136 132 147 299 336 325 315 322 317 316 320 314 317 320 322 324 321 319 319 324 328 329 329 327 326 325 322 319 317 317 313 316 315 317 314 311 321 325
146 150 142 141 151 155 136 75 332 345 333 327 319 321 318 317 321 323 324 325 328 329 330 329 327 326 327 327 320 321 326 322 319 324 323 324 317 320 326 330 325 329 323
147 151 154 149 157 161 145 187 320 324 335 325 321 320 324 319 324 324 325 321 325 333 339 333 330 327 328 331 332 334 339 340 342 342 344 342 334 339 335 331 332 322 329
157 155 158 156 152 163 179 206 284 329 330 329 331 331 326 328 326 326 318 318 316 328 337 336 341 335 332 328 331 339 347 353 355 3 347 344 357 347 347 341 340 333 335
159 156 153 159 167 169 209 245 290 314 329 346 326 325 327 330 329 327 329 325 325 328 342 343 341 348 329 334 340 346 346 354 355 1 359 353 347 346 344 346 341 342 337